Tracking 35237 objects as of 6-Sep-2026
HD Live streaming from Space Station
objects crossing your sky now

COSMOS 450

Track COSMOS 450 now!
10-day predictions
COSMOS 450 is classified as:


NORAD ID: 5553
Int'l Code: 1971-086G
Launch date: October 13, 1971
Source: Commonwealth of Independent States (former USSR) (CIS)
Launch site: PLESETSK MISSILE AND SPACE COMPLEX (PKMTR)
Your satellite tracking list
Your tracking list is empty




NASA's NSSDC Master Catalog

Two Line Element Set (TLE):
1 05553U 71086G   26248.44023547  .00000009  00000-0  17887-3 0  9994
2 05553  74.0250 235.3594 0043367 326.0847 148.9104 12.42701590490373
Source of the keplerian elements: AFSPC